Retour au catalogue

BREEZE-M DEB

ActifHEO
NORAD 32026·DEBRIS·🇷🇺 Russia

Lancé Feb 28, 2006 depuis Baikonur Cosmodrome

Loading…

Prochains Passages (prochaines 24 heures)

TLE

FraisSource: Space-Track

Époque: Sep 14, 2026, 05:07 UTC

1 32026U 06006D   26257.21352309  .00002399  00000-0  10497-1 0  9997
2 32026  51.3057 346.8582 3824737 344.1822  13.8377  7.04685086448021

Suivez BREEZE-M DEB en temps réel avec AllMySat

Download on the App Store